EW7112 Weather Reports


time (UTC)temp
F
wind
direction
speed
knots
gust
knots
rain 1hr
in
rain 24hr
in
rain mn
in
humidity
%
barometer
mb
20260502163028 70 63 0.9 3.5 0.00 0.00 0.00 37 1001.3
20260502161526 69 259 0.9 3.5 0.00 0.00 0.00 38 1001.3
20260502151514 66 52 0.9 3.5 0.00 0.00 0.00 43 1001.0
20260502123037 52 307 0.0 1.7 0.00 0.00 0.00 85 999.7
20260502121544 52 308 0.0 1.7 0.00 0.00 0.00 85 999.5
20260502114527 52 308 0.0 0.0 0.00 0.00 0.00 84 999.1
20260502113024 52 308 0.0 0.0 0.00 0.00 0.00 84 998.8
20260502111527 52 308 0.0 0.9 0.00 0.00 0.00 84 998.5
20260502110020 52 308 0.0 0.9 0.00 0.00 0.00 84 998.4
20260502104518 53 302 0.0 2.6 0.00 0.00 0.00 84 998.3
20260502103017 53 298 0.0 1.7 0.00 0.00 0.00 83 998.3
20260502101517 53 283 0.9 2.6 0.00 0.00 0.00 82 998.1
20260502091509 54 288 0.9 3.5 0.00 0.00 0.00 82 997.8
20260502070117 53 259 0.0 0.0 0.00 0.00 0.00 84 998.0
20260502064557 54 259 0.0 0.0 0.00 0.00 0.00 84 998.1
20260502063057 54 259 0.0 0.0 0.00 0.00 0.00 83 998.1
20260502061554 55 259 0.0 0.9 0.00 0.00 0.00 81 998.1
20260502060053 56 259 0.0 0.9 0.00 0.00 0.00 81 998.0
20260502054553 56 238 0.0 0.9 0.00 0.00 0.00 82 997.9
20260502053102 55 92 0.0 0.0 0.00 0.00 0.00 84 997.8
20260502051603 55 92 0.0 0.0 0.00 0.00 0.00 83 998.1
20260502050046 56 92 0.0 0.0 0.00 0.00 0.00 82 998.0
20260502044545 56 92 0.0 0.0 0.00 0.00 0.00 83 998.0
20260502043043 56 92 0.0 0.0 0.00 0.00 0.00 82 997.9
20260502041601 57 92 0.0 0.0 0.00 0.00 0.00 81 997.8
20260502040042 57 92 0.0 0.0 0.00 0.00 0.00 81 997.9
20260502034535 58 92 0.0 0.0 0.00 0.00 0.00 81 997.6
20260502033045 58 92 0.0 0.0 0.00 0.00 0.00 79 997.6
20260502031533 59 92 0.0 0.0 0.00 0.00 0.00 78 997.5
20260502030032 60 92 0.0 0.0 0.00 0.00 0.00 77 997.4
20260502024529 60 92 0.0 0.0 0.00 0.00 0.00 71 997.2
20260502023029 62 92 0.0 0.0 0.00 0.00 0.00 65 997.1
20260502021527 62 92 0.0 0.9 0.00 0.00 0.00 63 997.0
20260502020025 62 92 0.0 2.6 0.00 0.00 0.00 62 996.5
20260502014528 62 277 0.0 0.9 0.00 0.00 0.00 63 996.2
20260502013023 63 277 0.0 0.9 0.00 0.00 0.00 62 995.9
20260502011523 63 100 0.0 0.9 0.00 0.00 0.00 62 995.4
20260502010024 64 100 0.0 0.9 0.00 0.00 0.00 60 995.3
20260502004522 64 100 0.0 0.9 0.00 0.00 0.00 60 995.2
20260502003021 64 100 0.0 1.7 0.00 0.00 0.00 58 995.0
20260502001520 65 100 0.0 1.7 0.00 0.00 0.00 57 994.8
20260502000019 65 100 0.0 0.9 0.00 0.00 0.00 56 994.6
20260501234518 65 104 0.0 0.9 0.00 0.00 0.00 58 994.4
20260501233018 66 36 0.0 0.9 0.00 0.00 0.00 56 994.2
20260501231515 66 23 0.0 2.6 0.00 0.00 0.00 56 994.2
20260501230015 66 106 0.9 4.3 0.00 0.00 0.00 53 994.0
20260501224514 66 86 0.0 2.6 0.00 0.00 0.00 54 994.1
20260501223012 66 99 1.7 4.3 0.00 0.00 0.00 54 994.1
20260501221509 66 82 0.0 4.3 0.00 0.00 0.00 53 993.9
20260501220008 65 8 0.0 2.6 0.00 0.00 0.00 55 994.1
20260501214507 65 38 0.0 5.2 0.00 0.00 0.00 56 994.0
20260501213006 65 6 1.7 6.1 0.00 0.00 0.00 54 994.1
20260501211507 66 1 0.0 4.3 0.00 0.00 0.00 54 994.3
20260501210004 66 60 1.7 7.0 0.00 0.00 0.00 52 994.6
20260501204503 65 96 0.9 5.2 0.00 0.00 0.00 53 994.8
20260501203005 65 351 4.3 8.7 0.00 0.00 0.00 51 994.9
20260501201503 65 25 3.5 10.4 0.00 0.00 0.00 51 995.1
20260501200002 65 32 2.6 9.6 0.00 0.00 0.00 52 995.1
20260501194502 66 58 1.7 7.0 0.00 0.00 0.00 51 994.7
20260501193107 65 81 2.6 7.0 0.00 0.00 0.00 52 994.5
20260501191602 65 360 2.6 7.0 0.00 0.00 0.00 51 994.6
20260501190059 65 129 2.6 10.4 0.00 0.00 0.00 50 994.4
20260501184604 66 102 4.3 11.3 0.00 0.00 0.00 50 994.4
20260501183103 66 358 4.3 13.0 0.00 0.00 0.00 50 994.6
20260501181600 66 324 3.5 12.2 0.00 0.00 0.00 47 994.9